GFSGL_sfc_dewp_333.txt.gz
Dewpoint
24 25 26 27 29 30 31 32 33 34 35 39 40 42 44 43 41 40 39 38 37 38 37 39 38 39 40 39 40 39 38 38 39 37 37 36 34 33 33 33 34 34 32
23 24 25 26 27 29 29 30 32 33 35 36 38 40 40 42 42 40 39 38 37 37 38 38 37 36 37 38 39 38 38 38 39 33 34 33 32 34 33 32 30 28 29
23 23 24 26 28 32 32 32 31 32 33 35 36 38 40 41 41 40 39 37 37 37 38 37 37 37 37 38 38 37 37 35 38 35 33 35 33 34 33 33 32 31 28
25 25 27 28 28 30 31 30 30 32 32 33 33 33 33 34 37 37 39 38 37 37 38 38 38 37 37 37 37 37 36 35 36 35 33 33 32 32 34 32 31 33 32
28 32 29 30 31 29 29 28 29 29 31 32 32 33 33 34 36 38 38 38 37 37 36 37 37 36 35 37 36 37 35 35 35 33 31 31 30 30 31 33 33 33 32
31 28 29 27 27 26 27 25 26 27 29 31 32 32 32 34 35 36 37 37 35 35 35 35 36 34 35 35 35 36 35 34 33 32 30 29 29 30 31 32 32 30 29
27 27 26 26 24 25 26 25 25 26 29 28 30 32 32 32 35 35 36 36 35 35 35 34 34 34 34 35 35 35 34 34 35 33 32 31 30 30 31 31 32 31 32
25 25 25 23 21 23 24 23 25 29 28 29 29 30 31 33 34 35 35 36 35 35 35 34 34 34 35 35 33 33 32 32 32 30 31 31 31 31 31 31 33 32 30
22 24 26 24 22 22 21 24 28 28 28 28 30 29 29 31 32 33 35 34 34 34 34 34 35 34 35 36 33 32 32 32 32 31 32 31 31 32 32 31 30 29 30
21 22 25 26 23 22 25 25 29 28 28 28 28 29 29 30 33 33 34 34 33 33 33 33 33 35 35 36 33 32 31 31 30 29 30 30 30 30 30 30 30 30 30
23 24 25 26 24 25 26 28 28 27 27 27 27 29 29 31 32 33 34 34 33 33 33 32 33 35 35 35 34 33 32 32 31 30 29 28 28 28 28 27 28 30 31
23 23 23 25 25 27 26 27 26 26 25 26 27 27 28 32 33 33 33 34 35 33 33 33 33 35 35 36 34 33 33 32 31 29 28 25 25 25 26 27 26 26 26
17 17 22 24 25 26 27 26 25 24 24 23 23 24 24 28 30 32 33 33 34 34 33 33 34 34 35 35 34 33 31 31 30 28 26 25 24 25 25 26 25 22 22
13 14 17 22 24 24 25 25 26 26 25 24 24 24 25 26 27 30 32 31 32 33 34 34 34 34 34 34 33 33 31 30 29 28 26 26 25 24 24 25 25 26 24
10 11 14 18 23 24 24 25 24 24 25 26 27 27 26 26 27 28 28 30 32 33 33 32 32 32 32 32 32 31 30 30 29 28 27 24 24 23 24 26 26 26 24
7 8 11 15 19 23 24 24 26 26 26 25 25 25 27 26 27 27 27 28 29 32 32 31 30 31 31 31 31 30 30 29 28 28 27 24 23 23 23 25 26 26 23
5 7 8 10 13 16 20 22 23 24 26 26 26 26 26 26 26 26 26 27 28 30 31 32 31 31 31 32 32 30 29 28 29 28 26 24 23 24 23 24 25 26 22
3 4 6 7 9 13 16 19 21 22 22 23 24 24 24 24 24 25 25 26 27 29 30 32 32 32 32 32 32 31 29 28 28 27 26 24 23 23 24 24 25 24 22
3 3 5 7 9 10 13 15 17 19 19 20 21 21 21 22 22 23 24 25 26 28 30 32 32 32 32 33 32 32 30 29 28 27 26 25 24 23 24 25 25 24 22
1 1 1 3 5 8 9 11 12 14 16 17 17 18 21 20 21 21 23 25 27 28 30 31 32 32 33 33 33 32 31 29 28 27 26 25 24 24 24 25 25 23 22
1 2 2 3 4 5 6 8 10 11 12 14 15 17 19 19 19 21 22 24 27 29 30 32 33 33 33 33 33 32 31 29 28 27 27 25 24 23 24 25 24 22 24
1 1 2 2 3 3 4 6 7 9 10 11 12 15 18 18 19 20 21 23 25 29 32 33 33 33 33 33 33 32 31 29 28 27 26 26 24 24 25 24 23 24 22
3 1 0 1 2 2 3 4 6 7 8 9 11 12 14 16 17 18 20 22 25 27 32 33 33 33 33 33 33 33 31 30 28 27 26 26 24 23 23 23 23 22 21
6 5 4 3 2 3 3 3 4 5 6 8 10 12 13 15 16 18 20 23 26 27 31 33 33 33 33 32 33 33 32 31 29 28 27 25 25 23 23 22 22 22 22
7 6 5 5 5 4 4 4 5 6 7 8 9 11 13 16 18 20 21 23 25 29 31 33 33 33 33 32 32 32 32 31 29 28 27 25 24 23 22 22 22 22 20
5 6 6 7 8 8 8 7 8 9 9 11 13 14 14 15 16 17 18 20 21 24 32 33 33 33 33 32 32 32 32 31 29 27 26 25 24 23 23 22 21 20 19

GFSGL_sfc_dewp_336.txt.gz
Dewpoint
26 27 28 29 29 30 29 31 32 33 34 36 38 40 42 43 41 40 40 39 38 38 39 38 38 39 39 38 38 38 36 36 33 35 36 35 34 32 32 33 34 30 29
25 26 27 28 29 29 29 30 31 31 33 34 36 38 40 41 42 40 39 39 38 37 38 38 38 37 37 38 38 36 36 36 33 33 32 32 32 32 32 28 28 27 24
24 24 25 26 27 27 27 29 29 29 31 31 33 34 35 36 37 40 39 38 38 38 38 38 38 38 36 37 36 36 35 35 33 32 32 32 32 32 31 27 29 26 28
26 26 24 25 26 25 23 21 22 25 26 29 31 32 33 33 35 35 37 38 37 36 38 38 38 38 37 37 36 34 35 31 32 32 32 31 31 32 31 29 28 31 31
28 27 24 24 23 19 17 17 19 20 22 23 30 30 31 33 34 36 36 35 35 34 35 37 38 37 36 37 37 35 33 29 29 33 32 31 30 30 30 31 30 30 30
25 24 22 21 20 16 14 15 14 17 18 19 22 26 29 31 33 36 36 35 33 33 33 34 36 35 36 37 37 37 35 31 31 31 31 29 29 29 29 30 30 29 28
20 21 18 17 17 16 16 15 13 16 19 18 19 23 24 28 32 34 35 34 34 33 32 33 33 35 34 34 36 36 34 35 34 31 30 30 29 29 29 29 30 29 30
13 16 17 15 18 15 15 15 15 18 18 20 20 21 23 27 31 31 34 33 33 33 32 32 33 33 34 34 33 33 32 31 31 31 31 31 30 29 31 31 30 30 29
12 13 13 14 18 12 15 13 16 20 22 20 23 21 21 21 31 32 31 33 33 33 33 31 33 33 34 36 33 32 31 30 33 33 32 32 33 33 32 31 30 29 27
14 17 15 16 17 15 16 14 16 19 23 26 26 22 21 23 30 33 32 32 32 32 33 33 32 33 35 36 33 31 30 29 29 28 28 30 31 32 32 27 26 23 28
18 18 17 18 20 19 18 20 19 19 22 17 22 22 21 23 24 32 32 31 32 32 32 31 32 35 36 37 34 31 31 30 30 28 27 28 27 26 22 22 22 25 29
17 16 15 17 21 24 22 23 23 23 22 19 20 21 24 24 28 31 32 32 32 32 32 32 32 34 35 36 34 34 34 30 29 28 27 25 25 25 24 25 23 20 25
12 10 11 14 18 23 23 24 24 24 23 22 23 21 22 25 25 31 31 32 32 32 32 33 34 35 36 36 35 35 32 30 29 27 26 25 24 24 25 25 22 18 17
7 8 10 11 14 17 23 24 24 23 23 22 23 22 21 23 24 25 27 27 28 29 31 33 34 34 35 34 33 34 31 31 29 27 26 24 22 23 24 24 22 18 16
6 7 7 9 11 14 19 23 24 24 24 22 22 22 19 19 23 27 25 24 22 26 30 31 31 30 30 31 32 32 30 30 29 28 26 23 22 23 23 24 25 25 17
3 4 5 6 8 11 14 19 25 26 27 28 28 26 25 26 26 27 27 27 27 28 20 30 30 30 30 31 31 30 30 29 29 28 26 23 22 23 23 24 25 25 15
1 2 3 4 6 7 10 12 16 21 26 28 28 27 27 26 27 27 27 27 27 25 15 20 30 30 30 31 32 30 29 29 29 29 25 23 22 23 23 24 24 24 15
-2 -0 1 2 3 4 6 8 13 17 18 18 24 26 27 28 27 27 26 25 14 16 15 19 24 30 31 32 32 31 30 29 29 28 26 23 22 22 23 24 24 23 18
-3 -1 0 2 3 5 6 8 10 11 15 18 10 20 20 26 25 25 25 18 15 13 17 21 27 26 31 32 33 32 31 29 29 28 27 24 23 22 22 23 25 22 20
-2 -1 -0 -0 -1 -0 2 5 6 8 10 13 14 15 8 9 12 17 18 15 17 20 19 22 25 28 29 32 32 33 31 30 29 28 27 25 24 23 23 23 24 22 21
-1 -1 -1 -1 -1 -0 1 1 3 6 8 9 10 13 17 14 15 14 17 18 20 22 21 24 26 29 30 32 33 32 31 29 29 29 28 26 24 23 24 25 24 22 22
1 0 -1 -2 -1 -1 -1 1 2 3 4 6 8 10 16 16 16 15 15 16 18 20 20 24 27 30 30 31 33 33 32 30 29 29 28 26 25 24 24 25 23 23 21
2 1 0 -0 -0 0 -0 0 1 1 2 4 6 7 7 11 12 14 15 16 14 19 22 24 28 30 31 32 34 34 33 31 29 30 28 26 25 24 25 24 23 23 20
3 3 4 3 2 1 0 -0 -0 1 2 2 4 6 8 9 11 12 14 15 17 19 21 24 28 28 30 32 33 34 34 33 31 31 30 27 25 24 24 23 23 22 20
3 2 3 4 3 3 3 2 1 1 2 2 3 4 6 8 10 11 13 15 17 19 21 24 27 28 29 31 33 33 33 32 32 32 31 28 25 24 23 23 22 21 20
2 2 2 2 2 3 4 5 4 4 3 4 5 6 6 6 9 11 14 16 17 19 19 24 29 29 31 32 33 33 33 32 31 31 30 28 25 24 23 22 22 21 21

GFSGL_sfc_dewp_339.txt.gz
Dewpoint
26 27 28 28 28 27 27 28 29 31 32 34 36 39 40 43 42 41 40 40 39 39 39 38 38 39 39 39 38 38 37 36 32 34 36 35 33 33 33 34 33 28 29
25 26 27 27 26 26 27 27 28 29 30 32 34 35 37 38 41 40 39 39 39 38 38 38 37 38 38 39 38 36 36 36 34 33 32 32 32 32 32 29 27 25 24
25 25 24 25 25 25 25 26 27 28 28 30 31 33 34 34 36 38 40 38 39 38 38 38 38 38 37 37 37 37 36 35 33 30 32 32 32 32 30 26 25 25 29
28 27 26 24 24 24 21 19 19 23 26 28 29 31 32 33 35 35 36 37 36 36 38 38 38 38 38 37 37 36 36 32 31 29 32 31 31 32 31 27 27 30 30
25 26 25 26 26 22 17 16 16 17 21 22 25 27 28 32 33 35 35 36 34 34 34 36 37 37 37 38 37 36 35 33 31 30 31 31 30 30 29 30 28 30 30
21 20 21 22 22 20 18 17 16 15 15 17 21 23 25 30 32 34 36 35 35 33 32 32 34 34 36 37 38 37 36 33 31 28 31 30 30 30 31 30 30 28 27
17 17 17 17 18 18 18 16 17 17 15 14 17 21 23 27 30 31 34 33 33 33 33 32 32 34 34 35 37 37 36 36 34 31 29 30 30 30 30 29 29 29 29
16 15 16 17 16 17 14 16 13 16 18 20 19 18 21 25 31 31 31 32 33 33 33 33 32 32 33 34 33 33 33 32 31 32 30 30 29 29 30 30 30 29 29
17 16 17 17 17 15 14 16 15 18 20 19 22 21 20 21 29 33 31 31 32 33 33 33 32 29 33 36 33 32 32 31 33 33 32 32 33 33 32 31 30 29 27
16 17 16 16 16 16 16 14 13 18 22 24 25 21 20 23 27 31 32 29 29 32 33 33 32 33 34 36 33 32 30 29 30 28 27 30 31 32 33 31 30 28 27
16 16 15 14 15 17 19 17 18 19 21 18 21 21 20 22 23 31 32 28 29 31 31 32 32 35 35 35 35 32 31 29 30 28 26 25 27 27 27 27 27 26 28
13 12 11 11 14 17 18 21 21 22 22 20 18 20 22 23 25 30 31 31 31 30 30 31 32 35 35 36 35 33 34 30 29 27 27 25 25 25 25 26 23 24 25
9 7 7 10 12 15 14 18 22 24 23 22 22 21 21 23 24 28 31 31 28 29 30 31 33 35 36 35 36 35 32 30 28 27 26 24 24 24 25 23 21 20 21
5 5 6 7 8 10 12 15 20 22 22 23 22 21 21 21 23 24 26 26 27 27 28 30 32 34 35 34 32 34 31 30 28 27 25 23 23 24 23 24 22 20 15
2 3 4 5 6 8 10 13 17 21 24 22 22 22 18 18 22 25 26 23 20 25 19 28 28 29 30 29 31 32 30 30 29 27 25 23 22 22 23 24 24 22 16
-1 0 1 2 3 4 5 7 12 15 18 23 27 26 24 25 25 28 29 27 28 28 13 22 16 25 29 29 30 30 29 29 29 27 25 23 22 22 22 24 25 24 20
-4 -2 -1 1 1 2 4 6 6 9 15 19 22 27 29 27 28 28 28 28 28 25 10 9 26 17 20 30 31 30 29 29 30 28 25 23 23 22 23 23 24 24 19
-6 -4 -3 -2 -1 0 1 2 4 5 6 9 17 21 25 30 28 27 28 27 13 16 10 11 16 18 20 21 31 31 30 30 29 28 26 24 23 23 23 23 24 24 18
-5 -3 -2 -1 -1 0 2 2 4 5 6 8 10 15 18 24 30 27 27 24 16 10 10 12 17 18 19 21 23 32 31 29 29 28 26 25 24 23 23 24 24 23 17
-4 -3 -3 -2 -1 -1 -1 -2 -2 0 3 5 6 9 5 7 14 19 18 10 12 14 12 16 17 19 21 21 23 31 32 30 29 29 27 26 25 24 23 23 24 22 17
-0 -1 -1 -2 -2 -2 -1 -2 -2 -2 -1 2 5 8 13 11 14 11 11 15 16 17 12 15 19 20 23 21 29 31 31 31 29 29 27 26 25 24 24 24 24 22 20
0 -1 -1 -1 -2 -2 -2 -1 -2 -2 -1 0 2 5 11 11 13 16 14 15 16 14 15 17 20 21 25 26 28 29 29 30 30 29 28 27 26 25 25 24 23 22 20
1 1 1 1 0 -1 -1 -1 -1 -1 -2 -1 -1 1 4 5 7 10 11 11 11 11 14 13 19 22 25 28 29 29 29 30 31 29 29 27 26 26 25 24 23 22 20
0 -0 -0 0 2 3 1 -1 -1 -0 -0 -2 -1 -0 2 4 6 7 10 11 5 9 13 17 19 20 22 26 29 29 30 33 32 30 30 28 27 26 26 24 23 22 21
0 -0 -1 -1 -0 0 1 3 3 1 1 1 -1 -1 0 2 4 6 8 11 12 12 14 16 18 19 20 23 28 28 31 32 32 31 31 29 28 27 26 24 24 22 20
-0 0 0 -0 -1 -1 -0 -0 -0 1 3 3 2 1 1 1 2 4 7 9 10 12 13 15 17 18 20 23 27 28 31 32 32 31 32 29 28 27 26 24 23 21 20

GFSGL_sfc_dewp_342.txt.gz
Dewpoint
29 28 28 28 27 27 26 26 27 28 29 32 34 37 38 39 41 41 41 40 40 40 39 39 39 39 39 39 39 38 37 36 34 35 36 35 33 33 33 34 32 29 29
28 27 26 25 25 25 26 26 26 27 27 30 32 34 35 36 38 39 40 40 39 39 39 39 38 38 38 39 38 37 36 37 34 32 32 32 32 32 31 29 28 25 26
26 28 27 26 24 25 25 25 24 26 27 28 29 31 33 34 35 37 38 38 39 39 39 38 38 38 37 38 38 37 37 36 34 33 31 32 32 32 30 29 27 25 29
25 25 25 26 27 26 24 21 21 22 24 25 27 27 30 33 34 35 36 36 36 36 37 38 38 38 38 37 37 36 36 34 33 32 32 31 31 31 30 28 24 27 30
21 21 20 23 25 24 22 20 20 19 20 19 22 24 25 30 30 32 34 35 35 34 34 35 37 37 37 38 37 36 36 33 33 32 31 30 30 30 29 29 27 29 30
17 14 16 18 20 20 20 19 19 18 18 18 18 20 23 27 32 31 34 33 34 33 33 33 34 34 36 38 38 38 37 34 32 32 31 30 30 30 31 30 29 28 26
16 15 15 16 18 18 17 16 18 18 18 16 17 20 21 24 30 32 32 31 32 33 33 33 32 33 34 35 36 38 36 36 34 32 30 30 30 30 31 30 30 29 29
16 16 17 16 16 17 18 16 15 15 17 20 21 19 20 23 29 32 33 30 31 32 33 33 33 32 32 34 33 33 34 33 32 33 31 31 30 30 30 30 30 29 29
12 14 14 14 14 14 15 17 18 17 19 20 22 21 22 21 27 31 32 28 29 31 33 33 32 32 33 35 33 32 32 32 32 32 32 32 33 32 31 31 29 28 27
10 12 13 12 12 11 14 17 17 18 21 23 24 22 20 21 25 29 31 29 26 29 31 33 33 34 35 35 33 32 31 30 30 29 27 30 30 31 33 31 30 28 27
11 11 9 10 11 12 14 16 18 20 22 20 21 21 19 19 21 28 31 27 30 29 29 29 32 35 35 35 35 32 32 31 30 28 25 26 27 27 28 28 28 29 28
9 9 7 7 10 12 13 14 15 18 21 21 20 21 22 21 23 27 30 30 30 29 29 29 31 33 36 35 35 34 34 31 28 26 26 25 25 25 25 25 25 26 26
6 4 5 7 9 11 9 10 12 15 19 21 22 22 21 21 23 27 29 31 29 28 29 29 30 32 36 35 36 35 32 30 28 27 26 22 22 25 24 23 23 23 23
2 2 3 4 5 7 8 9 12 14 17 20 21 22 22 21 21 23 25 26 28 28 27 28 30 31 34 34 32 34 30 30 29 27 25 22 23 24 23 24 23 23 23
-1 0 1 2 3 4 5 6 7 9 13 16 20 22 21 21 21 23 24 24 21 24 16 26 26 23 28 29 29 30 30 29 28 27 24 22 20 23 23 23 23 22 22
-4 -3 -2 -2 -1 1 2 2 8 11 14 16 18 19 22 27 27 27 27 29 29 29 12 24 24 25 21 27 29 30 29 29 28 27 25 22 21 19 21 23 25 24 22
-7 -4 -4 -3 -2 -2 -1 -0 -1 2 9 12 14 16 20 23 29 30 29 29 29 27 8 12 13 17 22 22 25 29 29 29 29 27 24 23 21 21 21 22 23 23 21
-8 -6 -5 -4 -3 -2 -2 -1 0 0 0 2 8 12 15 20 24 29 30 29 25 21 9 11 13 14 13 18 22 25 29 29 28 26 25 24 23 21 22 23 23 23 21
-5 -4 -3 -3 -3 -2 -2 -2 -2 -1 -1 -0 1 6 10 14 18 21 26 29 27 24 11 6 8 8 10 10 20 29 29 29 28 26 25 24 23 23 21 22 23 24 20
-2 -2 -2 -3 -3 -3 -2 -3 -3 -4 -4 -3 -1 1 1 5 7 12 16 22 26 23 14 12 11 8 11 10 13 28 28 29 29 28 24 25 24 24 24 23 24 23 21
-1 -1 -2 -2 -3 -4 -3 -3 -3 -4 -4 -4 -3 0 8 6 6 8 9 12 17 18 11 10 10 11 11 11 9 23 28 28 29 29 25 25 25 24 24 24 24 22 19
-1 -1 -2 -3 -3 -2 -3 -3 -3 -3 -4 -5 -4 -1 7 5 6 9 11 10 5 9 10 11 12 12 14 15 19 20 28 28 29 29 28 25 26 25 25 24 23 22 20
-2 -3 -3 -3 -2 -1 -1 -1 -2 -2 -2 -3 -3 -3 -3 -2 0 2 4 6 4 5 5 6 11 11 11 16 19 28 27 27 29 30 29 27 26 26 25 24 23 22 20
-5 -4 -4 -4 -4 -4 -4 -3 -1 -0 -1 -1 -1 -2 -3 -2 -1 1 3 3 -1 6 7 9 12 14 11 13 17 26 29 29 30 31 30 28 26 26 26 26 24 22 21
-8 -5 -4 -4 -4 -4 -4 -4 -3 -3 -2 -0 -1 -0 -2 -2 -2 -0 2 3 5 7 9 11 13 12 12 12 16 18 23 27 30 32 31 29 27 27 26 26 25 23 20
-11 -8 -5 -3 -3 -4 -3 -3 -3 -2 -3 -3 -0 2 2 0 0 -0 0 2 5 7 8 12 12 12 12 14 15 18 21 27 30 32 32 30 28 27 27 26 25 22 20